Regional Weather Roundup
Issued by NWS

Home | Current Version | Previous Version | Text Only | Print | Product List | Glossary On
Versions: 1 2 3 4 5 6 7 8 9 10 11 12 13 14 15 16 17 18 19 20 21 22 23 24 25 26 27 28 29 30 31 32 33 34 35 36 37 38 39 40 41 42 43 44 45 46 47 48 49 50
000
ASUS44 KJAN 261210
RWRMS

MISSISSIPPI HOURLY WEATHER ROUNDUP
NATIONAL WEATHER SERVICE JACKSON MS
700 AM CDT SUN APR 26 2015

NOTE: "FAIR: INDICATES FEW OR NO CLOUDS BELOW 12,000 FEET WITH NO
SIGNIFICANT WEATHER AND/OR OBSTRUCTIONS TO VISIBILITY.

MSZ001>002-007>008-010>013-018>021-025>028-034>036-261300-
NORTHWEST MISSISSIPPI

CITY           SKY/WX    TMP DP  RH WIND       PRES   REMARKS
CLARKSDALE       N/A     59  59 100 CALM      29.75R
CLEVELAND      FAIR      60  60 100 CALM      29.72R
GREENWOOD      FOG       63  61  93 S3        29.72R VSB<1/4
6HR MIN TEMP:  61; 6HR MAX TEMP:  69;

GREENVILLE     CLEAR     64  62  93 W3        29.72R FOG
6HR MIN TEMP:  63; 6HR MAX TEMP:  70;

OLIVE BRANCH   PTCLDY    57  57 100 N6        29.74R
OXFORD         FAIR      55  55 100 CALM      29.75R
TUNICA         SUNNY     59  57  94 N7        29.74R
$$

MSZ003>006-009-014>017-022>024-029>033-037>039-261300-
NORTHEAST MISSISSIPPI

CITY           SKY/WX    TMP DP  RH WIND       PRES   REMARKS
COLUMBUS AFB   CLEAR     63  63 100 W5        29.70S
6HR MIN TEMP:  61; 6HR MAX TEMP:  64;

CORINTH        FAIR      61  57  88 N5        29.71R
GOLDN TRIANGLE MOCLDY    64  63  94 W5        29.71R
STARKVILLE     FAIR      63  63 100 CALM      29.72R FOG
TUPELO         CLEAR     65  61  87 NW3       29.71R
6HR MIN TEMP:  64; 6HR MAX TEMP:  69;

$$

MSZ040-058-261300-
CENTRAL MISSISSIPPI

CITY           SKY/WX    TMP DP  RH WIND       PRES   REMARKS
JACKSON INTL   PTCLDY    63  62  97 CALM      29.73R FOG
6HR MIN TEMP:  63; 6HR MAX TEMP:  67;

JACKSON HAWKNS CLEAR     65  63  93 W3        29.74R
6HR MIN TEMP:  65; 6HR MAX TEMP:  68;

MERIDIAN KEY   CLEAR     58  58 100 CALM      29.73R
6HR MIN TEMP:  57; 6HR MAX TEMP:  62;

MERIDIAN NAS   CLEAR     64  62  93 CALM      29.73R
6HR MIN TEMP:  63; 6HR MAX TEMP:  67;

RAYMOND        HAZE      61  57  88 CALM      29.74R VSB<1/4
VICKSBURG      CLEAR     63  62  97 CALM      29.75R FOG
6HR MIN TEMP:  61; 6HR MAX TEMP:  70;

$$

MSZ059>079-261300-
SOUTH MISSISSIPPI

CITY           SKY/WX    TMP DP  RH WIND       PRES   REMARKS
BROOKHAVEN     PTSUNNY   66  66 100 SW3       29.77R
HATTIESBURG    CLEAR     64  63  96 CALM      29.75R
6HR MIN TEMP:  63; 6HR MAX TEMP:  69;

MCCOMB         FOG       65  65 100 W9        29.77R VSB 1/4
6HR MIN TEMP:  59; 6HR MAX TEMP:  65;

NATCHEZ        CLEAR     64  63  94 SW3       29.76R
6HR MIN TEMP:  64; 6HR MAX TEMP:  68;

PINE BELT      CLEAR     64  61  88 CALM      29.76R
6HR MIN TEMP:  63; 6HR MAX TEMP:  64;

$$

MSZ080>082-261300-
COASTAL MISSISSIPPI

CITY           SKY/WX    TMP DP  RH WIND       PRES   REMARKS
BAY ST LOUIS   CLOUDY    64  63  94 MISG      29.76  FOG
BILOXI         PTCLDY    69  69 100 VRB1      29.75S
6HR MIN TEMP:  67; 6HR MAX TEMP:  70;

PASCAGOULA     CLOUDY    63  62  97 CALM      29.76R
6HR MIN TEMP:  61; 6HR MAX TEMP:  63;

GULFPORT       MOCLDY    65  63  93 NW3       29.75S
6HR MIN TEMP:  63; 6HR MAX TEMP:  66;

$$


USA.gov is the U.S. government's official web portal to all federal, state and local government web resources and services.